[[{"header":{"parameterUnit":"m.s-1","parameterCategory":1,"la1":30.2991,"la2":30.254,"lo1":-89.0895,"lo2":-89.0444,"dy":0.0017,"dx":0.0017,"nx":28,"ny":28,"refTime":"2023-09-30T03:00:00:Z","depth":0,"parameterNumber":2,"parameterNumberName":"U-component_of_WINDS"},"data":[0,0,0,0,0,0,0,0,0,0,0,0,0,0,0,0,0,0,0,0,0,0,0,0,0,0,0,0,0,0,0,0,0,0,0,0,0,0,0,0,0,0,0,0,0,0,0,0,0,0,0,0,0,0,0,0,0,0,-2.0943,-2.0943,0,-2.0937,-2.0937,-2.0937,-2.0817,-2.0814,-2.0811,-2.0808,-2.0805,-2.0808,-2.081,0,0,0,0,0,0,0,0,0,0,0,0,0,-2.0853,-2.0855,-2.0943,-2.0943,-2.0943,-2.0937,-2.0937,-2.0937,-2.0818,-2.0814,-2.081,-2.0807,-2.0804,-2.0807,-2.0811,0,0,0,0,0,0,0,0,0,0,0,0,0,-2.0874,-2.0856,-2.0943,-2.0883,-2.0877,-2.0937,-2.0937,-2.0937,-2.0818,-2.0814,-2.0809,-2.0805,-2.0803,-2.0807,-2.0811,-2.093,0,0,-2.0824,-2.0826,0,0,0,0,0,0,0,0,-2.0873,-2.0878,-2.0892,-2.0887,-2.0881,-2.0873,-2.0904,-2.0935,-2.082,-2.0841,-2.0808,-2.0803,-2.0832,-2.0833,-2.0842,-2.093,-2.093,-2.0824,-2.0827,-2.0829,-2.083,0,0,0,0,0,0,0,-2.0872,-2.0877,-2.0941,-2.0892,-2.0886,-2.0856,-2.0854,-2.0909,-2.0862,-2.0839,-2.083,-2.0831,-2.0828,-2.0839,-2.0841,-2.0929,-2.0824,-2.0828,-2.083,-2.0832,-2.1113,-2.1118,0,0,0,0,0,0,-2.0878,-2.0877,-2.0941,-2.0941,-2.0865,-2.0862,-2.0859,-2.088,-2.0861,-2.0854,-2.0835,-2.0825,-2.0834,-2.0837,-2.0841,-2.0978,-2.0829,-2.0833,-2.0835,-2.1108,-2.1114,-2.1119,0,0,0,0,0,0,-2.0877,-2.0885,-2.0942,-2.0906,-2.0911,-2.0868,-2.0893,-2.0883,-2.0893,-2.0858,-2.085,-2.0854,-2.083,-2.0835,-2.0908,-2.0976,-2.0834,-2.0838,-2.1102,-2.111,-2.1117,-2.1255,0,0,0,0,0,0,-2.0875,-2.0885,-2.093,-2.0908,-2.0914,-2.1009,-2.0897,-2.0886,-2.0901,-2.0888,-2.0874,-2.0868,-2.0827,-2.0903,-2.0912,-2.098,-2.0842,-2.1096,-2.1106,-2.1114,-2.1244,-2.1266,-2.1285,0,0,0,0,0,-2.0872,-2.097,-2.0933,-2.0941,-2.0968,-2.1013,-2.1016,-2.0967,-2.0907,-2.0951,-2.0928,-2.0868,-2.0967,-2.0911,-2.0921,-2.0991,-2.1091,-2.1103,-2.1114,-2.1235,-2.1262,-2.1284,0,0,0,0,0,0,-2.1003,-2.0966,-2.0925,-2.1018,-2.102,-2.0993,-2.1048,-2.0997,-2.1016,-2.1004,-2.0941,-2.0939,-2.1022,-2.1013,-2.0952,-2.1104,-2.1018,-2.1032,-2.1107,-2.1132,-2.1153,-2.1154,-2.0845,0,0,0,0,0,-2.1042,-2.1081,-2.1047,-2.1133,-2.1136,-2.1092,-2.111,-2.1071,-2.107,-2.107,-2.1053,-2.1055,-2.1086,-2.1109,-2.1135,-2.1241,-2.1237,-2.1294,-2.1314,-2.1331,-2.1344,-2.1399,-2.1424,-2.1156,-2.1156,-2.1155,0,0,-2.1125,-2.1109,-2.1138,-2.1159,-2.1155,-2.1197,-2.1093,-2.1143,-2.1173,-2.1078,-2.1146,-2.1133,-2.1131,-2.1222,-2.126,-2.1217,-2.1417,-2.1345,-2.1359,-2.1363,-2.1413,-2.1439,-2.1462,-2.1163,-2.1162,-2.1161,0,0,-2.1297,-2.1289,-2.1359,-2.1357,-2.1352,-2.1322,-2.1339,-2.132,-2.1307,-2.1374,-2.1303,-2.1339,-2.1394,-2.1396,-2.1404,-2.1574,-2.152,-2.1585,-2.1692,-2.1747,-2.1768,-2.1786,-2.1848,-2.187,-2.1597,-2.1598,-2.1598,0,-2.14,-2.146,-2.1402,-2.1456,-2.1467,-2.1381,-2.1452,-2.1453,-2.1458,-2.1468,-2.1418,-2.1485,-2.1478,-2.1567,-2.1608,-2.1618,-2.1636,-2.1587,-2.1769,-2.1787,-2.1803,-2.1861,-2.1884,-2.1606,-2.1605,-2.1604,-2.1603,0,-2.1588,-2.1631,-2.1688,-2.1693,-2.1711,-2.1773,-2.1725,-2.175,-2.1709,-2.1684,-2.1753,-2.1741,-2.1763,-2.1781,-2.1742,-2.1865,-2.1838,-2.178,-2.1693,-2.1838,-2.1891,-2.1913,-2.1617,-2.1614,-2.1612,-2.161,0,0,-2.1845,-2.1815,-2.1838,-2.1839,-2.1826,-2.1858,-2.1916,-2.1936,-2.1959,-2.1965,-2.2012,-2.206,-2.2006,-2.2015,-2.1975,-2.2023,-2.2159,-2.1958,-2.1957,-2.1997,-2.2293,-2.2338,-2.2364,-2.2121,-2.2125,-2.2128,-2.2293,0,-2.2012,-2.2108,-2.2057,-2.2161,-2.2199,-2.2116,-2.2167,-2.2165,-2.2143,-2.2172,-2.2147,-2.2183,-2.2108,-2.2113,-2.2156,-2.2133,-2.2217,-2.212,-2.2166,-2.2168,-2.2171,-2.2392,-2.244,-2.2596,-2.2314,-2.2317,-2.232,0,-2.222,-2.2232,-2.234,-2.2318,-2.2333,-2.2379,-2.2393,-2.2422,-2.2418,-2.2398,-2.2408,-2.2356,-2.2412,-2.2324,-2.24,-2.2335,-2.235,-2.2342,-2.2347,-2.235,-2.2254,-2.2403,-2.2644,-2.2669,-2.2352,-2.2349,-2.2347,0,-2.2397,-2.2441,-2.2511,-2.2514,-2.2491,-2.2525,-2.2517,-2.2508,-2.2523,-2.2536,-2.2545,-2.2564,-2.2576,-2.2592,-2.2547,-2.2487,-2.2629,-2.2538,-2.2616,-2.2617,-2.2651,-2.265,-2.29,-2.2659,-2.2659,-2.2658,-2.2658,0,-2.259,-2.2659,-2.259,-2.2633,-2.2708,-2.2648,-2.2724,-2.2707,-2.2699,-2.2738,-2.2667,-2.2705,-2.2642,-2.2674,-2.2639,-2.2708,-2.2713,-2.27,-2.269,-2.2707,-2.2709,-2.2717,-2.2706,-2.2664,-2.2663,-2.2662,-2.2661,0,-2.2802,-2.2758,-2.2828,-2.28,-2.2794,-2.285,-2.2826,-2.2865,-2.2836,-2.2886,-2.2895,-2.2851,-2.2885,-2.2841,-2.2871,-2.2847,-2.2941,-2.2914,-2.2942,-2.2935,-2.3015,-2.3009,-2.3281,-2.3314,-2.3051,-2.3054,-2.3056,0,-2.2928,-2.2979,-2.2955,-2.2975,-2.297,-2.3004,-2.3019,-2.2961,-2.2979,-2.2977,-2.3016,-2.3044,-2.3063,-2.312,-2.3092,-2.3114,-2.3088,-2.3182,-2.3091,-2.3107,-2.3091,-2.3089,-2.3094,-2.3201,-2.3204,-2.3207,-2.3209,0,-2.3157,-2.3132,-2.3156,-2.3171,-2.319,-2.32,-2.3205,-2.3226,-2.3165,-2.3189,-2.3222,-2.3236,-2.3266,-2.3294,-2.3308,-2.33,-2.3246,-2.3237,-2.3256,-2.3275,-2.329,-2.3284,-2.2994,-2.3232,-2.323,-2.3228,-2.3227,-2.3226,-2.3331,-2.3372,-2.3361,-2.3389,-2.3385,-2.3391,-2.3426,-2.3401,-2.3427,-2.3445,-2.3409,-2.3451,-2.3444,-2.3458,-2.3456,-2.3488,-2.3448,-2.3476,-2.3483,-2.3491,-2.3504,-2.3283,-2.3491,-2.349,-2.3489,-2.3489,-2.3488,0,-2.3557,-2.3545,-2.3571,-2.3579,-2.3601,-2.3544,-2.3546,-2.3569,-2.3606,-2.3603,-2.3623,-2.366,-2.3687,-2.366,-2.3681,-2.3712,-2.3688,-2.372,-2.3718,-2.3717,-2.3538,-2.352,-2.374,-2.374,-2.3739,-2.3739,-2.3739,-2.3739,-2.3677,-2.3744,-2.3717,-2.3781,-2.3769,-2.3808,-2.3814,-2.3819,-2.3816,-2.3861,-2.3882,-2.3863,-2.3851,-2.387,-2.3893,-2.3884,-2.3896,-2.3937,-2.392,-2.3754,-2.373,-2.3706,-2.3689,-2.394,-2.3941,-2.4096,-2.4098,-2.4099]},{"header":{"parameterUnit":"m.s-1","parameterCategory":1,"la1":30.2991,"la2":30.254,"lo1":-89.0895,"lo2":-89.0444,"dy":0.0017,"dx":0.0017,"nx":28,"ny":28,"refTime":"2023-09-30T03:00:00:Z","depth":0,"parameterNumber":3,"parameterNumberName":"V-component_of_WINDS"},"data":[0,0,0,0,0,0,0,0,0,0,0,0,0,0,0,0,0,0,0,0,0,0,0,0,0,0,0,0,0,0,0,0,0,0,0,0,0,0,0,0,0,0,0,0,0,0,0,0,0,0,0,0,0,0,0,0,0,0,-2.0005,-2.0005,0,-2.0073,-2.0074,-2.0074,-2.0088,-2.0088,-2.0087,-2.0087,-2.0153,-2.0155,-2.0157,0,0,0,0,0,0,0,0,0,0,0,0,0,-1.9882,-1.9885,-2.0005,-2.0005,-2.0006,-2.0073,-2.0074,-2.0075,-2.0088,-2.0088,-2.0087,-2.0086,-2.0152,-2.0154,-2.0157,0,0,0,0,0,0,0,0,0,0,0,0,0,-1.9941,-1.9885,-2.0004,-2.0021,-2.0023,-2.0073,-2.0074,-2.0075,-2.0088,-2.0088,-2.0087,-2.0086,-2.0151,-2.0154,-2.0157,-2.0193,0,0,-2.0168,-2.0169,0,0,0,0,0,0,0,0,-1.9938,-1.9946,-2.0018,-2.002,-2.0023,-2.0071,-2.0055,-2.0114,-2.0089,-2.0064,-2.0087,-2.0086,-2.0126,-2.0131,-2.0146,-2.0197,-2.0199,-2.0168,-2.017,-2.0171,-2.0172,0,0,0,0,0,0,0,-1.9934,-1.9943,-2.0031,-2.0019,-2.0022,-2.0024,-2.0032,-2.0066,-2.0098,-2.0066,-2.0067,-2.0075,-2.0127,-2.0142,-2.0147,-2.02,-2.0168,-2.0171,-2.0173,-2.0174,-2.0283,-2.0284,0,0,0,0,0,0,-1.9927,-1.994,-2.0029,-2.0034,-1.9978,-2.0027,-2.0035,-2.0056,-2.0098,-2.0103,-2.0076,-2.0075,-2.0137,-2.0143,-2.015,-2.0194,-2.0171,-2.0175,-2.0176,-2.0283,-2.0284,-2.0285,0,0,0,0,0,0,-1.9925,-1.9935,-2.0027,-1.9987,-1.9999,-2.003,-2.0053,-2.0058,-2.0074,-2.0105,-2.0111,-2.0086,-2.0137,-2.0145,-2.0183,-2.0196,-2.0176,-2.0179,-2.0281,-2.0283,-2.0284,-2.0283,0,0,0,0,0,0,-1.9921,-1.9934,-1.9949,-1.9987,-2.0001,-2.006,-2.0054,-2.006,-2.008,-2.008,-2.0116,-2.0121,-2.0137,-2.0177,-2.0186,-2.0201,-2.0182,-2.028,-2.0282,-2.0284,-2.0282,-2.0284,-2.0286,0,0,0,0,0,-1.9917,-1.9946,-1.995,-1.9961,-2.002,-2.006,-2.0068,-2.0086,-2.0081,-2.0095,-2.0116,-2.012,-2.0194,-2.0181,-2.0191,-2.0207,-2.028,-2.0282,-2.0284,-2.0281,-2.0284,-2.0286,0,0,0,0,0,0,-1.9907,-1.9951,-1.9956,-1.9998,-2.0026,-2.0063,-2.0082,-2.0089,-2.0117,-2.0116,-2.0136,-2.0144,-2.0181,-2.0198,-2.0183,-2.0243,-2.0236,-2.024,-2.0231,-2.0234,-2.0236,-2.0231,-2.0185,0,0,0,0,0,-1.991,-1.994,-1.9976,-2.001,-2.0024,-2.005,-2.0068,-2.008,-2.0109,-2.012,-2.0143,-2.017,-2.0199,-2.0217,-2.0246,-2.0285,-2.0292,-2.03,-2.0302,-2.0304,-2.0307,-2.0328,-2.0332,-2.0291,-2.0291,-2.0291,0,0,-1.9916,-1.9944,-1.9961,-2.0009,-2.0031,-2.0061,-2.006,-2.0091,-2.0113,-2.0124,-2.0162,-2.0179,-2.021,-2.0249,-2.0267,-2.0264,-2.032,-2.0306,-2.0307,-2.031,-2.033,-2.0334,-2.0337,-2.0293,-2.0292,-2.0292,0,0,-1.9942,-1.9966,-1.9997,-2.002,-2.0054,-2.0072,-2.0079,-2.0115,-2.0128,-2.0166,-2.0175,-2.0201,-2.025,-2.0272,-2.0289,-2.0323,-2.0328,-2.0332,-2.0342,-2.0363,-2.0366,-2.0369,-2.038,-2.0384,-2.0335,-2.0335,-2.0335,0,-1.9945,-1.9991,-2.0011,-2.0043,-2.0062,-2.0076,-2.0106,-2.0127,-2.0168,-2.0181,-2.0178,-2.0241,-2.0262,-2.0305,-2.0314,-2.0328,-2.0336,-2.0328,-2.0364,-2.0367,-2.037,-2.0381,-2.0385,-2.0335,-2.0335,-2.0335,-2.0335,0,-1.9992,-2.0024,-2.0044,-2.0085,-2.0107,-2.0138,-2.0162,-2.0182,-2.0191,-2.0209,-2.0247,-2.0273,-2.0307,-2.0319,-2.0328,-2.0363,-2.036,-2.036,-2.0353,-2.0374,-2.0384,-2.0389,-2.0335,-2.0335,-2.0335,-2.0335,0,0,-2.0013,-2.0066,-2.0073,-2.0091,-2.013,-2.0155,-2.0185,-2.022,-2.0236,-2.0264,-2.0289,-2.0331,-2.0332,-2.0351,-2.0363,-2.0381,-2.0405,-2.0379,-2.038,-2.0382,-2.0444,-2.0444,-2.0448,-2.0409,-2.041,-2.0411,-2.0441,0,-2.0043,-2.01,-2.0119,-2.0165,-2.0194,-2.0207,-2.0233,-2.0259,-2.0276,-2.0302,-2.0321,-2.035,-2.0349,-2.036,-2.0379,-2.0399,-2.0418,-2.0397,-2.0431,-2.0432,-2.0423,-2.0454,-2.0453,-2.0481,-2.0446,-2.0447,-2.0447,0,-2.0086,-2.0116,-2.0165,-2.02,-2.0213,-2.0237,-2.0269,-2.0295,-2.0324,-2.0335,-2.0357,-2.0368,-2.0399,-2.0391,-2.0433,-2.0418,-2.0434,-2.0446,-2.0447,-2.045,-2.044,-2.0457,-2.049,-2.0494,-2.0454,-2.0453,-2.0453,0,-2.0095,-2.0148,-2.0184,-2.02,-2.0242,-2.0258,-2.0276,-2.0305,-2.0324,-2.0353,-2.0365,-2.0396,-2.0413,-2.0436,-2.0454,-2.0447,-2.0495,-2.0488,-2.0504,-2.0503,-2.0513,-2.0512,-2.0548,-2.0524,-2.0524,-2.0524,-2.0524,0,-2.0126,-2.0156,-2.0189,-2.0211,-2.0244,-2.0265,-2.0297,-2.0315,-2.0341,-2.0366,-2.0379,-2.0402,-2.0425,-2.0451,-2.0465,-2.0497,-2.0505,-2.0514,-2.0517,-2.0512,-2.0511,-2.0522,-2.052,-2.0525,-2.0525,-2.0524,-2.0524,0,-2.0142,-2.0166,-2.0206,-2.0243,-2.0253,-2.0275,-2.0307,-2.0328,-2.0346,-2.0377,-2.0386,-2.0413,-2.0444,-2.0465,-2.0504,-2.0513,-2.0548,-2.0552,-2.0539,-2.054,-2.0554,-2.0552,-2.0598,-2.0605,-2.0577,-2.0577,-2.0577,0,-2.016,-2.0183,-2.0223,-2.0241,-2.026,-2.0289,-2.0309,-2.0331,-2.0351,-2.0386,-2.0403,-2.0435,-2.0461,-2.051,-2.0532,-2.0562,-2.0566,-2.058,-2.057,-2.0564,-2.0565,-2.0563,-2.0565,-2.0581,-2.0581,-2.0581,-2.0581,0,-2.0189,-2.02,-2.0229,-2.0262,-2.0286,-2.0312,-2.0339,-2.0353,-2.0379,-2.0401,-2.0433,-2.0454,-2.0494,-2.0525,-2.0557,-2.0575,-2.0582,-2.0584,-2.0589,-2.0584,-2.0575,-2.058,-2.0542,-2.0583,-2.0583,-2.0583,-2.0583,-2.0583,-2.0206,-2.0227,-2.0258,-2.029,-2.0313,-2.0337,-2.0359,-2.038,-2.0408,-2.0443,-2.0454,-2.0487,-2.0515,-2.0559,-2.0577,-2.0603,-2.0601,-2.0609,-2.061,-2.0612,-2.0611,-2.0572,-2.0609,-2.0608,-2.0608,-2.0608,-2.0608,0,-2.0235,-2.0256,-2.0285,-2.0322,-2.0347,-2.0353,-2.0383,-2.0403,-2.0433,-2.0459,-2.0485,-2.0522,-2.0552,-2.0577,-2.0608,-2.0624,-2.0628,-2.0631,-2.063,-2.0633,-2.0611,-2.0603,-2.0627,-2.0627,-2.0627,-2.0627,-2.0627,-2.0627,-2.0253,-2.0288,-2.0302,-2.0349,-2.0369,-2.0403,-2.0419,-2.0442,-2.0463,-2.0504,-2.0529,-2.0546,-2.0572,-2.0605,-2.0632,-2.0639,-2.0649,-2.0651,-2.0658,-2.0637,-2.0635,-2.0633,-2.0626,-2.0654,-2.0654,-2.0679,-2.0679,-2.0679]}]]